#timestamp,LO_Frequency,Hit,StdDev 
1590271215.3,286047008.3,N
1590271235.1,286047004.8,N
1590271255.9,286047005.4,N
1590271275.7,286047006.0,N
1590271295.6,286047007.4,N
1590271315.4,286047013.6,Y
1590271335.2,286047005.8,P
1590271355.1,286047000.2,N
1590271356.0,286047000.2,N
1590271375.8,286047004.4,N
1590271395.7,286047003.7,N
1590271415.5,286047004.6,N
1590271435.3,286047004.5,N
1590271455.2,286047003.5,N
1590271475.0,286047002.6,N
1590271475.9,286047002.6,N
1590271495.8,286046999.7,N
1590271515.6,286047000.1,N
1590271535.4,286047002.2,N
1590271555.3,286047002.2,N
1590271575.1,286047002.3,N
1590271595.8,286046999.7,N
1590271615.7,286047005.2,N
1590271635.5,286047010.3,Y
1590271655.4,286047006.1,P
1590271675.2,286047008.4,P
1590271695.0,286047010.3,P
1590271695.9,286047010.3,Y
1590271715.8,286046996.6,P
1590271735.6,286046997.5,N
1590271755.5,286046999.6,N
1590271775.3,286047000.3,N
1590271795.1,286047000.8,N
1590271815.9,286047002.8,N
1590271835.7,286047002.9,N
1590271855.5,286047005.8,N
1590271875.4,286047001.0,N
1590271895.2,286046998.4,N
1590271915.1,286047002.5,N
1590271916.0,286047002.5,N
1590271935.8,286047004.0,N
1590271955.6,286047003.4,N
1590271975.5,286047002.1,N
1590271995.3,286046997.3,N
1590272015.2,286046991.4,Y
1590272035.9,286046979.4,P
1590272055.7,286046981.0,N
1590272075.6,286046978.1,N
1590272095.4,286046977.9,N
1590272115.2,286046977.1,N
1590272135.1,286046970.7,Y
1590272136.0,286046970.7,P
1590272155.8,286046989.2,N
1590272175.7,286046989.7,N
1590272195.5,286046984.0,N
1590272215.3,286046981.4,N
1590272235.2,286046983.5,N
1590272255.0,286046983.4,N
1590272255.9,286046983.4,Y
1590272275.8,286046987.0,P
1590272295.6,286046987.9,P
1590272315.4,286046993.2,P
1590272335.3,286046987.9,Y
1590272355.1,286046997.8,P
1590272375.9,286047001.3,N
1590272395.7,286047003.5,N
1590272415.5,286047002.2,N
1590272435.4,286047005.0,N
1590272455.2,286047004.7,N
1590272475.0,286047002.8,N
1590272475.9,286047002.8,N
1590272495.8,286047000.0,N
1590272515.6,286047001.5,N
1590272535.5,286047002.0,N
1590272555.3,286046998.6,N
1590272575.1,286046994.6,N
1590272595.9,286046988.7,N
1590272615.7,286046993.0,N
1590272635.5,286046997.4,N
1590272655.4,286047007.5,N
1590272675.2,286047014.2,N
1590272695.1,286047021.7,Y
1590272696.0,286047021.7,P
1590272715.8,286047015.7,N
1590272735.6,286047020.4,N
1590272755.5,286047020.0,N
1590272775.3,286047017.7,N
1590272795.1,286047022.0,Y
1590272815.9,286046998.3,P
1590272835.7,286046998.5,N
1590272855.6,286046998.4,N
1590272875.4,286047000.2,N
1590272895.2,286047003.5,N
1590272915.1,286047002.6,N
1590272916.0,286047002.6,N
1590272935.8,286047005.8,N
1590272955.6,286047006.8,N
1590272975.5,286047012.3,N
1590272995.3,286047012.0,N
1590273015.2,286047014.0,N
1590273035.9,286047013.2,N
1590273055.7,286047013.6,N
1590273075.6,286047012.5,N
1590273095.4,286047013.5,N
1590273115.2,286047017.0,N
1590273135.1,286047014.1,N
1590273136.0,286047014.1,N
1590273155.8,286047008.2,N
1590273175.7,286047013.0,N
1590273195.5,286047016.5,N
1590273215.3,286047016.9,N
1590273235.2,286047026.0,Y
1590273255.0,286047012.5,P
1590273255.9,286047012.5,P
1590273275.7,286047012.4,P
1590273295.6,286047010.9,Y
1590273315.4,286047000.5,P
1590273335.3,286046998.8,N
1590273355.1,286047002.7,N
1590273375.8,286047005.6,N
1590273395.7,286047007.7,N
1590273415.5,286047008.6,N
1590273435.4,286047004.5,N
1590273455.2,286047003.9,N
1590273475.0,286047004.1,N
1590273475.9,286047004.1,N
1590273495.8,286047006.9,N
1590273515.6,286047011.9,Y
1590273535.4,286047007.5,P
1590273555.3,286047005.8,P
1590273575.1,286047001.7,N
1590273595.9,286046999.3,N
1590273615.7,286047004.1,N
1590273635.5,286047003.2,N
1590273655.4,286047004.1,N
1590273675.2,286047004.9,N
1590273695.0,286047002.8,N
1590273695.9,286047002.8,N
1590273715.8,286046996.0,N
1590273735.6,286046995.7,N
1590273755.5,286046992.5,N
1590273775.3,286046991.8,N
1590273795.1,286046995.3,N
1590273815.9,286046997.1,N
1590273835.7,286046995.4,N
1590273855.5,286046995.5,N
1590273875.4,286047006.0,N
1590273895.2,286047002.5,N
1590273945.1,286046999.3,E
1590273955.9,286046998.8,N
1590273975.7,286046999.7,P
1590273995.6,286046995.9,P
1590274015.4,286046993.0,Y
1590274035.3,286046988.7,P
1590274055.1,286046982.8,P
1590274056.0,286046982.8,N
1590274075.8,286046989.1,N
1590274095.8,286046998.8,N
1590274115.7,286046997.2,N
1590274135.5,286047001.0,N
1590274155.3,286046997.7,N
1590274175.2,286047003.5,N
1590274195.0,286046997.5,N
1590274195.9,286046997.5,N
1590274215.7,286046993.9,N
1590274235.6,286046992.9,N
1590274255.4,286046992.4,N
1590274275.3,286046998.9,N
1590274295.1,286047002.1,N
1590274296.0,286047002.1,N
1590274315.8,286047010.4,N
1590274335.7,286047000.2,N
1590274355.5,286046999.3,N
1590274375.3,286046994.5,N
1590274395.2,286046989.8,N
1590274415.0,286046986.5,N
1590274415.9,286046986.5,N
1590274435.8,286046981.9,N
1590274455.6,286046982.3,N
1590274475.4,286046988.1,N
1590274495.3,286046988.3,N
1590274515.1,286046991.3,N
1590274535.8,286046985.7,N
1590274555.7,286046978.5,N
1590274575.5,286046973.0,Y
1590274595.4,286046980.1,P
1590274615.2,286046973.8,P
1590274635.0,286046976.7,N
1590274635.9,286046976.7,Y
1590274655.8,286046990.9,P
1590274675.6,286046995.5,N
1590274695.5,286047001.7,N
1590274715.3,286046997.0,N
1590274735.1,286046995.2,N
1590274755.9,286047000.2,N
1590274775.7,286046998.0,N
1590274795.6,286046996.7,N
